Terminal Aerodrome Forecast
Issued by NWS

Home | Current Version | Previous Version | Text Only | Print | Product List | Glossary On
Versions: 1 2 3 4 5 6 7 8 9 10 11 12 13
000
FTUS43 KFGF 190500
TAFTVF
TAF
KTVF 190520Z 1906/2006 16007KT P6SM BKN120
     FM190900 10006KT P6SM -RA OVC050
     FM191300 32013KT P6SM -RA OVC025
     FM191600 32015G24KT P6SM -SHRA OVC035
     FM192000 32020G29KT P6SM OVC050
     FM200200 31014G22KT P6SM BKN050
      AMD LTD TO CLD VIS AND WIND=

USA.gov is the U.S. government's official web portal to all federal, state and local government web resources and services.